| time (UTC) | temp F | wind direction | speed MPH | gust MPH | rain 1hr in | rain 24hr in | rain mn in | humidity % | barometer mb |
| 20260905164503 | 74 | 335 | 2.0 | 7.0 | 0.00 | 0.00 | 0.00 | 75 | 1014.4 |
| 20260905163003 | 73 | 307 | 1.0 | 5.0 | 0.00 | 0.00 | 0.00 | 75 | 1014.5 |
| 20260905161503 | 72 | 298 | 1.0 | 7.0 | 0.00 | 0.00 | 0.00 | 77 | 1014.5 |
| 20260905160011 | 72 | 274 | 1.0 | 7.0 | 0.00 | 0.00 | 0.00 | 78 | 1014.5 |
| 20260905154503 | 71 | 317 | 2.0 | 7.0 | 0.00 | 0.00 | 0.00 | 78 | 1014.5 |
| 20260905153003 | 71 | 335 | 2.0 | 6.0 | 0.00 | 0.00 | 0.00 | 79 | 1014.6 |
| 20260905151506 | 71 | 319 | 3.0 | 8.0 | 0.00 | 0.00 | 0.00 | 78 | 1014.4 |
| 20260905150004 | 71 | 307 | 1.0 | 5.0 | 0.00 | 0.00 | 0.00 | 79 | 1014.4 |
| 20260905144511 | 71 | 44 | 0.0 | 3.0 | 0.00 | 0.00 | 0.00 | 79 | 1014.3 |
| 20260905143004 | 71 | 44 | 0.0 | 3.0 | 0.00 | 0.00 | 0.00 | 78 | 1014.3 |
| 20260905141504 | 70 | 44 | 0.0 | 4.0 | 0.00 | 0.00 | 0.00 | 81 | 1014.2 |
| 20260905140005 | 69 | 44 | 0.0 | 4.0 | 0.00 | 0.00 | 0.00 | 82 | 1014.2 |
| 20260905134504 | 68 | 43 | 0.0 | 0.0 | 0.00 | 0.01 | 0.00 | 83 | 1014.3 |
| 20260905133004 | 67 | 43 | 0.0 | 0.0 | 0.00 | 0.01 | 0.00 | 84 | 1014.4 |
| 20260905131504 | 66 | 43 | 0.0 | 0.0 | 0.00 | 0.01 | 0.00 | 87 | 1014.3 |
| 20260905130004 | 65 | 43 | 0.0 | 0.0 | 0.00 | 0.01 | 0.00 | 89 | 1014.4 |
| 20260905124507 | 64 | 43 | 0.0 | 0.0 | 0.00 | 0.01 | 0.00 | 92 | 1014.4 |
| 20260905123004 | 63 | 43 | 0.0 | 0.0 | 0.00 | 0.01 | 0.00 | 94 | 1014.4 |
| 20260905121504 | 62 | 43 | 0.0 | 0.0 | 0.00 | 0.01 | 0.00 | 95 | 1014.3 |
| 20260905120004 | 61 | 43 | 0.0 | 0.0 | 0.00 | 0.01 | 0.00 | 95 | 1014.2 |
| 20260905114503 | 61 | 43 | 0.0 | 0.0 | 0.00 | 0.01 | 0.00 | 95 | 1014.3 |
| 20260905113004 | 60 | 43 | 0.0 | 0.0 | 0.00 | 0.01 | 0.00 | 95 | 1014.1 |
| 20260905111506 | 60 | 43 | 0.0 | 0.0 | 0.00 | 0.01 | 0.00 | 94 | 1014.0 |
| 20260905110004 | 61 | 43 | 0.0 | 0.0 | 0.00 | 0.01 | 0.00 | 94 | 1014.0 |
| 20260905104504 | 61 | 43 | 0.0 | 0.0 | 0.00 | 0.01 | 0.00 | 94 | 1013.8 |
| 20260905103004 | 61 | 43 | 0.0 | 0.0 | 0.00 | 0.01 | 0.00 | 94 | 1013.7 |
| 20260905101504 | 61 | 43 | 0.0 | 0.0 | 0.00 | 0.01 | 0.00 | 94 | 1013.5 |
| 20260905100005 | 62 | 43 | 0.0 | 0.0 | 0.00 | 0.01 | 0.00 | 93 | 1013.4 |
| 20260905094504 | 63 | 43 | 0.0 | 0.0 | 0.00 | 0.01 | 0.00 | 93 | 1013.6 |
| 20260905093004 | 63 | 43 | 0.0 | 0.0 | 0.00 | 0.01 | 0.00 | 93 | 1013.4 |
| 20260905091504 | 63 | 43 | 0.0 | 0.0 | 0.00 | 0.01 | 0.00 | 93 | 1013.3 |
| 20260905090004 | 64 | 43 | 0.0 | 0.0 | 0.00 | 0.01 | 0.00 | 93 | 1013.2 |
| 20260905084504 | 64 | 43 | 0.0 | 0.0 | 0.00 | 0.01 | 0.00 | 93 | 1013.5 |
| 20260905083004 | 64 | 43 | 0.0 | 0.0 | 0.00 | 0.01 | 0.00 | 93 | 1013.5 |
| 20260905081505 | 64 | 43 | 0.0 | 0.0 | 0.00 | 0.01 | 0.00 | 93 | 1013.2 |
| 20260905080005 | 64 | 43 | 0.0 | 0.0 | 0.00 | 0.01 | 0.00 | 93 | 1013.1 |
| 20260905074505 | 64 | 43 | 0.0 | 0.0 | 0.00 | 0.01 | 0.00 | 93 | 1013.0 |
| 20260905073006 | 64 | 43 | 0.0 | 0.0 | 0.00 | 0.01 | 0.00 | 94 | 1012.9 |
| 20260905071505 | 64 | 43 | 0.0 | 0.0 | 0.00 | 0.01 | 0.00 | 94 | 1012.8 |
| 20260905070012 | 65 | 43 | 0.0 | 0.0 | 0.00 | 0.01 | 0.00 | 94 | 1012.9 |
| 20260905064505 | 65 | 43 | 0.0 | 0.0 | 0.00 | 0.01 | 0.00 | 94 | 1013.0 |
| 20260905063005 | 65 | 43 | 0.0 | 0.0 | 0.00 | 0.01 | 0.00 | 94 | 1013.1 |
| 20260905061506 | 65 | 43 | 0.0 | 0.0 | 0.00 | 0.01 | 0.00 | 93 | 1013.1 |
| 20260905060005 | 65 | 43 | 0.0 | 0.0 | 0.00 | 0.01 | 0.00 | 93 | 1013.2 |
| 20260905054505 | 65 | 43 | 0.0 | 0.0 | 0.00 | 0.01 | 0.00 | 93 | 1013.2 |
| 20260905053005 | 65 | 43 | 0.0 | 0.0 | 0.00 | 0.01 | 0.00 | 92 | 1013.2 |
| 20260905051515 | 66 | 43 | 0.0 | 0.0 | 0.00 | 0.01 | 0.00 | 92 | 1013.3 |
| 20260905050006 | 65 | 43 | 0.0 | 0.0 | 0.00 | 0.01 | 0.00 | 91 | 1013.5 |
| 20260905044508 | 65 | 43 | 0.0 | 0.0 | 0.00 | 0.01 | 0.00 | 91 | 1013.3 |
| 20260905043005 | 65 | 43 | 0.0 | 0.0 | 0.00 | 0.01 | 0.00 | 91 | 1013.4 |
| 20260905041506 | 66 | 43 | 0.0 | 0.0 | 0.00 | 0.01 | 0.00 | 92 | 1013.4 |
| 20260905040007 | 66 | 43 | 0.0 | 0.0 | 0.00 | 0.01 | 0.00 | 93 | 1013.4 |
| 20260905034510 | 67 | 43 | 0.0 | 0.0 | 0.00 | 0.01 | 0.01 | 94 | 1013.4 |
| 20260905033007 | 67 | 43 | 0.0 | 0.0 | 0.00 | 0.01 | 0.01 | 94 | 1013.5 |
| 20260905031507 | 68 | 43 | 0.0 | 0.0 | 0.00 | 0.01 | 0.01 | 94 | 1013.5 |
| 20260905030007 | 68 | 43 | 0.0 | 0.0 | 0.00 | 0.01 | 0.01 | 94 | 1013.6 |
| 20260905024508 | 67 | 43 | 0.0 | 0.0 | 0.00 | 0.01 | 0.01 | 94 | 1013.9 |
| 20260905023006 | 66 | 43 | 0.0 | 0.0 | 0.00 | 0.01 | 0.01 | 94 | 1014.0 |
| 20260905021505 | 66 | 43 | 0.0 | 0.0 | 0.00 | 0.01 | 0.01 | 93 | 1014.0 |
| 20260905020009 | 66 | 43 | 0.0 | 0.0 | 0.00 | 0.01 | 0.01 | 93 | 1013.8 |
| 20260905014507 | 66 | 43 | 0.0 | 0.0 | 0.00 | 0.01 | 0.01 | 92 | 1013.7 |
| 20260905013010 | 66 | 43 | 0.0 | 0.0 | 0.00 | 0.01 | 0.01 | 92 | 1013.6 |
| 20260905011513 | 66 | 43 | 0.0 | 0.0 | 0.00 | 0.01 | 0.01 | 91 | 1013.4 |
| 20260905010007 | 67 | 43 | 0.0 | 0.0 | 0.00 | 0.01 | 0.01 | 91 | 1013.6 |
| 20260905004506 | 67 | 43 | 0.0 | 0.0 | 0.00 | 0.01 | 0.01 | 90 | 1013.3 |
| 20260905003010 | 68 | 43 | 0.0 | 0.0 | 0.00 | 0.01 | 0.01 | 89 | 1013.0 |
| 20260905001510 | 68 | 43 | 0.0 | 0.0 | 0.00 | 0.01 | 0.01 | 89 | 1012.9 |
| 20260905000007 | 69 | 43 | 0.0 | 0.0 | 0.00 | 0.01 | 0.01 | 89 | 1012.9 |
| 20260904234506 | 70 | 43 | 0.0 | 0.0 | 0.00 | 0.01 | 0.01 | 88 | 1012.9 |
| 20260904233007 | 70 | 43 | 0.0 | 0.0 | 0.00 | 0.01 | 0.01 | 89 | 1013.1 |
| 20260904231510 | 71 | 43 | 0.0 | 0.0 | 0.00 | 0.01 | 0.01 | 90 | 1013.1 |
| 20260904230019 | 71 | 43 | 0.0 | 0.0 | 0.00 | 0.01 | 0.01 | 89 | 1012.9 |
| 20260904224506 | 71 | 43 | 0.0 | 0.0 | 0.00 | 0.01 | 0.01 | 88 | 1012.8 |
| 20260904223007 | 71 | 43 | 0.0 | 0.0 | 0.00 | 0.01 | 0.01 | 89 | 1012.8 |
| 20260904221507 | 71 | 43 | 0.0 | 0.0 | 0.00 | 0.01 | 0.01 | 88 | 1012.7 |
| 20260904220007 | 71 | 43 | 0.0 | 0.0 | 0.00 | 0.01 | 0.01 | 87 | 1012.4 |
| 20260904214507 | 72 | 43 | 1.0 | 3.0 | 0.00 | 0.08 | 0.01 | 87 | 1012.3 |
| 20260904213007 | 72 | 43 | 0.0 | 3.0 | 0.00 | 0.08 | 0.01 | 88 | 1012.0 |
| 20260904211510 | 72 | 43 | 0.0 | 2.0 | 0.00 | 0.08 | 0.01 | 88 | 1011.9 |
| 20260904210017 | 72 | 43 | 1.0 | 4.0 | 0.00 | 0.08 | 0.01 | 89 | 1012.0 |
| 20260904204507 | 73 | 354 | 0.0 | 2.0 | 0.00 | 0.28 | 0.01 | 89 | 1012.1 |
| 20260904203007 | 72 | 354 | 0.0 | 5.0 | 0.00 | 0.28 | 0.01 | 89 | 1012.2 |
| 20260904201507 | 73 | 348 | 0.0 | 4.0 | 0.00 | 0.28 | 0.01 | 89 | 1012.3 |
| 20260904200020 | 73 | 1 | 1.0 | 4.0 | 0.00 | 0.28 | 0.01 | 90 | 1012.2 |
| 20260904194507 | 72 | 1 | 0.0 | 5.0 | 0.00 | 0.30 | 0.01 | 90 | 1012.2 |
| 20260904193008 | 72 | 359 | 1.0 | 4.0 | 0.00 | 0.30 | 0.01 | 90 | 1012.3 |
| 20260904191514 | 73 | 3 | 1.0 | 4.0 | 0.00 | 0.30 | 0.01 | 90 | 1012.6 |
| 20260904190009 | 74 | 25 | 0.0 | 4.0 | 0.00 | 0.30 | 0.01 | 89 | 1012.7 |
| 20260904184509 | 73 | 352 | 0.0 | 4.0 | 0.00 | 0.30 | 0.01 | 91 | 1012.4 |
| 20260904183008 | 73 | 6 | 0.0 | 4.0 | 0.00 | 0.30 | 0.01 | 91 | 1012.6 |
| 20260904181509 | 74 | 160 | 0.0 | 4.0 | 0.00 | 0.30 | 0.01 | 89 | 1012.9 |
| 20260904180008 | 73 | 159 | 0.0 | 2.0 | 0.00 | 0.30 | 0.01 | 89 | 1013.1 |
| 20260904174511 | 73 | 159 | 0.0 | 2.0 | 0.00 | 0.30 | 0.01 | 91 | 1013.1 |
| 20260904173012 | 73 | 159 | 0.0 | 3.0 | 0.00 | 0.30 | 0.01 | 91 | 1013.4 |
| 20260904171507 | 72 | 160 | 1.0 | 3.0 | 0.00 | 0.30 | 0.01 | 93 | 1013.4 |
| 20260904170008 | 71 | 160 | 0.0 | 1.0 | 0.00 | 0.30 | 0.01 | 94 | 1013.7 |